Temperature
19 19 19 19 19 19 19 19 19 19 19 19 19 19 19 19 19 19 19 19 18 18 18 18 18 18 18 18 18 18 18 18 18 18 18 18 18 18 18 18 18 18 18
19 19 19 19 19 19 19 19 19 19 19 19 19 19 19 19 18 18 19 18 18 18 18 18 18 18 18 18 18 18 18 18 18 18 18 18 18 18 18 18 18 18 18
19 19 19 19 19 19 19 19 19 19 19 19 18 18 18 18 18 18 19 19 18 18 18 18 18 18 18 18 18 18 18 18 18 18 18 18 18 18 18 18 18 18 18
19 19 19 19 19 19 19 19 19 19 19 18 18 18 18 18 18 18 19 19 18 18 18 18 18 18 18 18 18 18 18 18 18 18 17 17 18 18 18 18 18 18 18
19 19 19 19 19 19 19 19 19 19 19 19 19 18 18 18 18 18 18 18 18 18 18 18 18 18 18 18 18 18 18 18 18 18 18 18 18 18 18 18 18 18 18
20 19 19 19 19 19 19 19 19 19 19 19 19 19 19 18 18 18 18 18 18 18 18 18 18 18 18 18 18 18 18 18 18 18 18 18 18 18 18 18 18 18 18
20 19 20 19 19 19 19 19 19 19 19 19 19 19 19 19 18 18 18 18 18 18 18 18 18 18 18 18 18 18 18 18 18 18 18 18 18 18 18 18 18 18 18
20 20 20 20 19 19 19 19 19 19 19 19 19 19 19 19 18 18 18 18 18 18 18 18 18 18 18 18 18 18 18 18 18 18 18 18 18 18 18 18 18 18 18
21 20 20 20 19 19 19 19 19 19 19 19 19 19 19 19 18 18 18 18 18 18 18 18 18 18 18 18 18 18 18 18 18 18 18 18 18 18 18 18 18 17 17
21 20 20 20 19 19 19 19 19 19 19 19 19 19 19 18 18 18 18 18 18 18 18 18 18 18 18 18 18 18 18 18 18 18 18 18 18 18 18 18 18 18 17
21 21 20 20 20 19 19 19 19 19 19 19 18 18 18 18 18 18 18 18 19 18 19 19 19 19 19 19 18 18 18 18 18 18 18 18 18 18 18 18 18 18 17
21 21 20 20 20 19 19 19 19 18 19 18 18 18 18 18 18 18 18 18 19 18 19 18 18 18 18 18 18 18 18 18 18 18 18 18 18 18 18 18 18 17 17
21 21 20 20 20 19 19 19 19 18 18 18 18 18 18 18 18 18 18 18 18 18 18 18 18 18 18 18 18 18 18 18 19 19 19 18 18 18 18 18 18 18 17
21 20 20 20 20 19 19 19 19 19 19 18 18 18 18 18 18 18 18 18 18 18 18 18 18 18 18 18 18 18 18 18 19 19 18 18 18 18 18 18 18 17 17
21 20 20 20 19 19 19 19 19 19 19 18 18 18 18 18 18 18 18 18 18 18 18 18 18 18 18 18 18 19 18 18 18 19 18 18 18 18 18 18 18 18 17
21 20 20 20 19 19 19 19 19 19 19 18 18 18 18 18 18 18 18 18 18 18 18 18 18 18 18 18 18 18 18 18 18 18 18 18 18 18 18 18 18 18 18
21 20 20 20 19 19 19 19 19 19 19 19 18 18 18 18 18 18 18 18 18 18 18 18 18 19 18 18 18 18 18 18 18 18 18 18 18 18 18 18 18 18 18
21 20 20 20 19 19 19 19 19 19 19 19 19 18 18 18 18 18 18 18 18 18 18 18 18 18 18 19 19 19 18 18 18 18 18 18 18 18 18 18 18 18 18
21 20 20 20 20 19 19 19 19 19 19 19 19 19 18 18 18 18 18 18 18 18 18 18 18 18 19 19 19 19 19 18 18 18 18 18 18 18 18 18 18 18 17
21 21 20 20 20 19 19 19 19 19 19 19 19 19 18 18 18 18 18 18 18 18 18 18 18 18 19 19 19 19 19 19 18 18 18 18 18 18 18 18 18 17 17
21 21 20 20 20 19 19 19 19 19 19 19 19 19 18 18 18 18 18 18 18 18 18 18 18 18 18 18 18 18 19 19 19 18 18 18 18 18 18 18 18 17 17
21 21 20 20 20 20 19 19 19 19 19 19 19 19 19 18 18 18 18 18 18 18 18 18 18 18 18 18 18 18 18 19 19 19 19 18 18 18 18 18 17 17 17
21 21 21 20 20 20 19 19 19 19 19 19 19 19 19 19 19 18 18 18 18 18 18 18 18 18 18 18 18 18 18 18 18 19 19 18 18 18 18 18 18 17 17
22 21 21 21 20 20 20 19 19 19 19 19 19 19 19 19 19 18 18 18 18 18 18 18 18 18 18 18 18 18 18 18 18 18 18 18 18 18 18 18 17 17 17
22 21 21 21 20 20 20 20 20 20 19 19 19 19 19 19 19 19 19 18 18 18 18 18 18 18 18 18 18 18 18 18 18 18 18 18 18 18 18 18 17 17 17
22 22 21 21 21 21 20 20 20 20 20 20 19 19 19 19 19 19 19 19 19 18 18 18 18 18 18 18 18 18 18 18 18 18 18 18 18 18 18 18 17 17 17
Wind_Speed
8 10 11 11 12 12 12 13 13 14 14 14 15 14 15 15 15 15 15 15 15 15 15 16 16 16 16 16 16 16 16 16 16 16 16 15 15 14 13 12 11 12 13
10 11 12 12 13 13 13 13 14 14 14 14 15 15 15 15 15 15 14 14 15 15 15 15 16 16 16 15 15 15 15 15 15 15 15 14 14 13 12 10 10 10 12
11 11 12 13 12 13 13 14 14 14 14 14 14 14 15 15 15 15 14 14 15 15 15 15 16 15 15 15 15 14 14 14 14 13 13 12 12 13 13 12 11 12 11
13 12 12 13 13 13 14 14 14 14 14 14 14 14 14 14 14 15 15 15 15 15 15 14 15 15 14 13 13 12 12 11 11 10 8 9 11 13 13 12 11 11 10
13 13 13 13 13 13 13 14 14 14 14 14 14 14 14 14 14 14 15 15 15 14 14 14 14 14 13 12 12 11 10 9 8 7 7 9 10 13 12 11 10 10 10
13 14 13 13 14 13 13 13 14 13 13 14 14 13 14 14 14 14 14 14 13 13 14 14 13 13 13 12 10 9 7 6 5 6 7 9 10 13 12 11 10 9 9
13 13 13 14 14 13 14 13 13 13 13 13 13 13 13 12 12 13 13 13 13 13 13 13 13 13 11 10 9 7 5 3 4 5 8 8 11 13 12 11 9 8 8
12 12 13 13 13 13 13 13 12 12 12 12 12 12 12 12 12 12 13 12 12 12 12 12 12 11 10 8 7 5 4 2 3 6 8 10 13 13 12 11 9 8 8
11 11 11 13 12 12 12 12 12 11 11 11 11 11 11 11 11 12 12 12 11 11 11 11 11 9 8 7 6 5 4 3 1 5 7 9 13 12 11 10 9 8 8
9 9 10 11 12 11 11 11 11 11 10 10 10 9 9 10 10 11 11 11 11 10 10 9 9 8 7 6 6 5 4 2 3 5 7 10 13 12 11 10 8 8 7
9 8 8 8 9 9 10 11 11 10 9 8 7 7 7 8 8 9 11 11 10 9 8 7 7 7 7 7 7 7 5 4 4 6 7 10 12 11 10 9 8 8 8
7 8 8 7 7 7 7 8 8 8 8 6 5 5 5 6 7 9 11 11 9 8 7 6 6 7 6 5 7 7 4 4 5 6 8 11 10 10 9 9 8 8 7
7 8 9 8 6 6 6 5 4 5 5 6 5 4 4 5 6 7 6 7 7 6 5 5 6 5 4 3 3 5 3 2 5 6 9 11 10 9 8 8 8 7 7
8 9 9 8 7 6 5 4 4 4 3 3 4 3 4 3 4 4 3 3 4 4 3 3 3 3 2 2 2 3 3 2 5 6 9 12 11 9 8 7 7 6 6
8 9 8 8 7 5 4 2 4 3 3 5 4 4 5 4 4 3 2 1 1 3 2 1 2 2 1 0 1 1 2 2 4 6 8 12 11 9 8 8 7 7 6
9 9 8 8 7 4 3 3 3 3 4 5 5 6 6 5 3 2 2 1 2 3 3 1 1 2 1 1 1 1 1 1 3 5 7 9 10 10 9 8 7 7 6
9 9 8 7 7 4 3 2 3 3 4 4 5 6 5 5 3 2 2 1 1 1 2 1 1 1 1 1 1 0 1 1 2 3 5 7 8 10 10 9 9 8 7
9 8 6 6 7 5 3 1 2 2 3 3 4 4 5 4 3 2 2 1 0 0 1 1 1 1 1 1 0 0 0 1 1 2 3 5 6 7 9 11 11 10 9
9 8 6 5 6 5 4 1 2 2 2 2 3 3 3 2 2 1 1 1 0 0 1 1 2 1 1 1 1 1 1 1 2 1 2 3 5 6 7 10 12 11 10
10 8 7 5 5 5 4 2 1 2 1 2 2 3 2 2 2 1 1 1 0 1 1 2 2 1 1 1 2 1 1 1 2 1 2 2 3 5 6 7 9 10 12
10 9 7 6 5 4 2 2 2 2 2 2 2 4 3 2 1 1 2 1 0 1 1 1 1 2 1 0 1 1 2 2 2 2 2 2 2 3 4 6 6 6 8
10 9 7 7 6 5 3 2 2 2 2 2 2 3 3 2 1 1 0 1 1 1 0 1 1 2 2 1 1 1 1 1 1 2 2 2 2 2 3 4 5 5 4
11 10 8 6 6 5 4 3 2 1 1 1 3 3 2 3 2 1 0 1 1 1 1 1 1 2 2 2 1 1 1 1 1 1 1 1 1 1 1 2 4 5 4
11 11 8 7 6 5 4 4 4 3 2 2 2 2 2 2 2 2 1 1 1 1 0 1 0 2 2 3 2 1 1 1 1 1 1 1 1 1 0 0 1 4 4
12 11 10 8 7 5 5 4 3 3 2 2 2 2 2 2 2 2 2 1 1 1 1 1 1 2 2 2 2 2 2 2 3 2 2 2 1 1 1 1 1 2 4
12 11 11 9 7 6 6 5 4 3 2 1 1 2 2 2 3 3 2 1 1 1 1 1 2 3 2 2 3 3 2 2 2 2 3 2 1 1 2 1 1 1 3
Wind_Direction
66 66 60 66 72 73 73 75 76 76 77 79 79 81 85 87 88 91 96 101 106 109 111 112 116 121 122 121 120 123 122 124 125 125 124 123 123 121 120 120 122 116 118
83 78 73 72 73 76 76 78 78 79 80 81 81 84 88 89 90 92 95 100 105 108 110 112 116 121 123 124 124 126 126 126 130 130 129 126 126 127 125 119 115 122 127
87 86 80 75 76 79 80 83 82 82 83 85 85 85 88 89 91 93 94 100 105 107 109 112 116 119 123 126 130 131 132 133 133 132 134 133 130 127 122 117 118 123 127
91 85 80 78 78 83 84 85 83 83 84 86 87 87 88 89 91 93 95 100 104 107 109 111 113 116 120 126 131 134 137 140 144 146 141 135 132 129 127 125 125 128 131
91 88 86 84 83 84 85 86 85 85 85 85 87 90 92 93 93 95 96 98 100 104 106 108 113 117 119 124 125 129 136 147 156 142 126 129 126 133 133 132 133 134 135
95 93 94 91 87 86 88 88 88 88 88 88 88 92 92 95 98 98 99 100 101 104 106 109 112 119 119 120 124 127 137 152 156 136 128 123 127 136 137 139 141 142 143
100 101 102 99 94 91 90 90 90 89 90 91 92 94 94 96 98 100 101 102 103 106 109 112 113 117 122 127 131 137 146 150 143 119 110 117 126 135 140 143 148 150 150
103 105 109 109 103 98 95 95 93 92 92 94 94 96 97 98 99 100 103 104 106 109 111 115 118 120 124 130 135 142 146 139 139 123 120 123 132 141 147 151 153 155 157
96 108 117 122 117 110 106 104 100 96 95 97 100 101 102 106 107 106 106 104 106 112 113 117 125 131 133 141 150 156 159 166 166 122 126 128 142 148 154 159 163 166 169
92 99 107 120 129 127 121 114 110 107 104 104 107 109 112 116 116 117 117 114 113 113 117 123 133 141 150 161 174 184 186 203 170 136 127 135 149 156 159 163 168 175 180
96 93 97 106 121 120 116 121 126 120 113 114 115 119 127 127 124 122 115 122 125 126 128 136 151 161 172 185 198 210 212 208 158 123 124 141 152 158 163 167 173 182 188
99 101 97 87 95 102 99 118 130 118 118 118 106 122 135 123 117 112 119 130 136 142 147 158 172 180 196 193 196 205 210 193 134 126 135 147 154 161 166 173 180 186 191
104 94 97 86 72 75 88 103 104 109 120 112 106 105 110 108 114 120 133 141 155 163 174 167 186 193 190 181 169 181 178 135 119 127 138 146 156 165 170 177 184 190 197
103 95 95 95 79 64 63 76 97 98 108 106 105 85 91 83 84 98 105 139 165 167 170 165 177 151 160 156 156 160 150 149 132 132 146 153 157 165 174 179 187 194 200
114 105 96 91 84 73 59 43 84 84 86 98 95 72 72 78 67 79 75 46 88 109 115 47 83 107 90 52 112 122 118 131 136 133 145 161 165 170 178 184 192 201 208
125 115 110 106 98 90 80 54 58 72 72 76 76 67 64 76 70 77 86 49 35 61 68 57 85 90 97 108 93 95 107 85 110 132 145 162 172 175 179 188 196 200 202
125 119 121 118 111 99 88 63 88 87 88 83 84 74 67 74 74 70 68 62 46 79 115 119 71 107 144 127 120 95 112 122 109 129 151 162 173 184 185 189 191 193 197
128 126 131 128 121 119 108 59 70 75 88 96 101 95 80 78 70 74 68 61 355 68 86 102 82 42 32 35 52 229 150 163 183 164 155 164 176 177 186 193 191 194 198
134 131 135 124 131 133 131 133 102 93 96 111 110 103 99 92 75 59 78 66 243 15 21 31 60 31 355 6 285 216 203 199 202 204 184 184 180 168 173 188 195 197 202
139 138 142 138 142 145 149 158 151 137 137 133 122 117 115 107 102 327 184 110 304 32 26 37 18 319 288 301 319 353 256 203 198 185 213 192 184 181 169 175 186 200 206
147 148 152 157 152 153 168 180 169 163 168 147 143 134 143 148 160 208 338 83 314 75 45 22 352 314 287 295 335 297 270 222 197 193 201 197 191 177 165 168 175 177 188
153 152 156 165 162 172 172 189 184 174 185 170 132 137 164 164 202 198 191 316 359 81 259 282 306 303 304 312 283 287 290 292 306 226 196 203 199 179 173 176 160 164 172
160 160 163 162 163 178 167 189 203 174 230 153 146 155 181 188 197 292 313 309 321 249 203 243 295 297 300 306 304 302 295 308 313 274 257 211 173 137 185 172 168 164 175
165 162 156 158 165 173 178 198 202 192 194 182 184 153 173 189 195 194 229 262 297 303 269 268 39 293 294 295 295 261 250 250 253 283 279 262 196 147 241 279 154 157 171
167 164 162 159 166 169 185 192 206 211 202 187 169 160 189 190 200 206 201 184 265 290 295 312 320 299 297 300 302 299 287 265 250 247 274 274 260 202 198 194 123 164 170
170 168 165 161 166 171 182 191 199 219 218 201 193 184 202 198 200 198 197 183 213 259 278 282 284 282 285 302 304 302 299 299 293 275 278 281 277 259 224 181 182 159 144
Height
1502 1499 1497 1496 1495 1495 1495 1495 1494 1494 1495 1495 1495 1496 1497 1498 1500 1500 1502 1503 1504 1506 1508 1509 1511 1514 1516 1518 1520 1523 1525 1527 1529 1531 1534 1537 1539 1541 1543 1545 1547 1548 1549
1504 1501 1500 1498 1497 1497 1497 1497 1497 1497 1497 1497 1498 1499 1500 1501 1502 1503 1504 1505 1507 1509 1510 1512 1514 1516 1518 1520 1523 1525 1527 1529 1532 1534 1536 1538 1540 1543 1545 1546 1548 1549 1550
1505 1503 1502 1501 1500 1499 1499 1499 1499 1499 1500 1500 1501 1501 1503 1504 1505 1505 1506 1507 1509 1511 1513 1515 1516 1518 1521 1523 1525 1527 1529 1531 1534 1536 1537 1539 1542 1544 1546 1547 1549 1550 1551
1507 1506 1505 1504 1502 1502 1502 1502 1502 1502 1502 1503 1503 1504 1505 1506 1507 1508 1509 1510 1512 1514 1515 1517 1519 1520 1523 1525 1527 1529 1531 1533 1535 1537 1539 1541 1543 1545 1547 1548 1550 1551 1552
1509 1508 1507 1506 1505 1505 1505 1505 1505 1505 1506 1506 1506 1507 1508 1509 1510 1511 1512 1513 1515 1516 1518 1519 1521 1522 1524 1526 1529 1531 1533 1535 1537 1539 1541 1542 1544 1546 1548 1549 1550 1551 1552
1511 1511 1510 1509 1508 1508 1508 1508 1508 1508 1509 1509 1510 1510 1511 1512 1513 1514 1515 1516 1517 1519 1520 1522 1524 1524 1527 1529 1531 1533 1535 1537 1539 1540 1542 1544 1545 1547 1548 1549 1550 1552 1553
1513 1513 1512 1512 1511 1511 1511 1511 1512 1512 1512 1512 1513 1513 1514 1515 1516 1517 1518 1519 1520 1521 1523 1524 1526 1527 1529 1531 1533 1535 1537 1538 1540 1542 1543 1544 1545 1547 1548 1550 1551 1552 1553
1515 1515 1515 1515 1515 1514 1515 1515 1515 1515 1515 1515 1516 1517 1517 1518 1519 1520 1520 1521 1522 1523 1525 1526 1528 1530 1531 1533 1535 1537 1538 1540 1542 1543 1544 1545 1546 1548 1549 1550 1551 1552 1553
1518 1517 1517 1518 1518 1518 1518 1518 1518 1518 1518 1519 1519 1520 1521 1521 1522 1523 1523 1524 1524 1526 1527 1529 1530 1532 1534 1535 1537 1539 1540 1541 1542 1543 1544 1546 1547 1548 1549 1550 1551 1552 1552
1520 1520 1521 1521 1521 1521 1521 1521 1522 1522 1522 1522 1523 1523 1524 1524 1525 1526 1527 1527 1528 1529 1530 1531 1533 1534 1536 1537 1539 1540 1541 1542 1543 1544 1545 1546 1547 1548 1549 1549 1550 1551 1552
1523 1523 1524 1524 1525 1525 1525 1525 1525 1525 1525 1526 1526 1527 1527 1528 1528 1529 1530 1530 1531 1532 1533 1534 1535 1536 1538 1539 1540 1541 1543 1543 1544 1544 1545 1546 1547 1548 1548 1549 1550 1550 1551
1524 1525 1526 1526 1527 1528 1529 1528 1528 1529 1529 1529 1529 1530 1530 1531 1532 1532 1533 1533 1534 1535 1535 1536 1537 1538 1539 1540 1542 1542 1543 1544 1545 1545 1545 1546 1547 1547 1548 1548 1549 1550 1550
1526 1527 1528 1528 1529 1530 1530 1531 1531 1532 1532 1532 1532 1533 1533 1534 1534 1535 1535 1535 1536 1537 1537 1538 1539 1540 1540 1542 1543 1543 1544 1545 1545 1545 1545 1546 1546 1547 1547 1548 1548 1548 1549
1528 1528 1529 1530 1530 1531 1532 1533 1533 1534 1534 1535 1535 1535 1535 1536 1537 1537 1537 1537 1538 1539 1539 1540 1541 1541 1542 1543 1544 1544 1545 1545 1545 1545 1545 1546 1546 1546 1546 1546 1547 1547 1548
1529 1530 1530 1531 1531 1532 1533 1534 1535 1535 1536 1536 1536 1537 1537 1537 1538 1538 1539 1539 1540 1541 1541 1541 1542 1542 1543 1543 1544 1544 1545 1545 1545 1545 1545 1545 1545 1545 1545 1546 1546 1546 1546
1529 1530 1531 1532 1532 1533 1534 1535 1536 1537 1538 1538 1538 1538 1539 1539 1539 1540 1540 1540 1541 1542 1542 1542 1543 1543 1543 1543 1544 1544 1544 1544 1544 1544 1544 1544 1544 1544 1545 1544 1544 1544 1544
1530 1531 1532 1533 1534 1534 1535 1536 1538 1538 1539 1539 1539 1540 1540 1540 1540 1541 1541 1542 1542 1543 1543 1543 1543 1543 1543 1544 1544 1544 1544 1544 1544 1544 1544 1544 1543 1544 1543 1543 1543 1543 1543
1530 1531 1533 1534 1534 1535 1536 1537 1538 1539 1540 1540 1540 1541 1541 1541 1541 1542 1542 1543 1543 1544 1544 1544 1544 1544 1544 1544 1543 1543 1544 1543 1543 1543 1543 1543 1543 1542 1542 1542 1542 1542 1542
1530 1531 1533 1534 1535 1536 1537 1538 1539 1540 1540 1541 1541 1541 1541 1542 1542 1542 1543 1543 1544 1544 1544 1544 1544 1544 1543 1543 1543 1543 1543 1543 1543 1543 1542 1542 1542 1541 1541 1541 1541 1541 1540
1529 1531 1532 1534 1535 1536 1537 1538 1539 1540 1541 1541 1541 1541 1542 1542 1542 1543 1543 1544 1544 1544 1544 1544 1544 1544 1543 1543 1542 1542 1542 1542 1542 1541 1541 1541 1540 1540 1540 1540 1539 1539 1539
1528 1530 1532 1533 1534 1536 1537 1538 1539 1540 1541 1541 1542 1542 1542 1542 1543 1543 1543 1544 1544 1544 1543 1543 1543 1543 1543 1542 1542 1541 1541 1541 1541 1540 1540 1540 1540 1539 1539 1538 1538 1538 1537
1527 1529 1531 1532 1533 1535 1536 1538 1539 1540 1541 1541 1542 1542 1542 1542 1542 1543 1543 1543 1543 1543 1543 1543 1542 1542 1542 1542 1541 1540 1540 1541 1540 1539 1539 1539 1539 1538 1538 1537 1537 1536 1535
1526 1528 1530 1531 1533 1534 1536 1537 1539 1539 1540 1541 1541 1541 1542 1542 1542 1542 1542 1542 1542 1542 1542 1542 1542 1541 1541 1541 1541 1541 1540 1539 1539 1539 1538 1538 1537 1537 1536 1536 1535 1534 1533
1525 1527 1528 1530 1532 1533 1535 1536 1537 1538 1539 1540 1541 1541 1541 1541 1541 1541 1541 1541 1541 1541 1541 1541 1540 1540 1540 1540 1539 1539 1540 1539 1538 1538 1538 1537 1536 1535 1535 1534 1533 1532 1531
1524 1525 1527 1529 1530 1532 1533 1535 1536 1538 1539 1540 1540 1540 1540 1541 1541 1541 1541 1540 1540 1540 1540 1540 1539 1539 1539 1538 1538 1538 1538 1537 1537 1537 1536 1535 1535 1534 1533 1532 1531 1530 1529
1522 1524 1526 1527 1529 1530 1532 1533 1535 1536 1537 1538 1539 1539 1540 1540 1540 1540 1540 1539 1539 1539 1538 1538 1538 1538 1537 1537 1537 1537 1536 1536 1535 1535 1534 1533 1533 1532 1531 1530 1529 1528 1527